Location: Charant-Kari
(42.0642°N, 44.5397°E)
Time: 13:27:41
(UTC+00:00)

Daily predictions for brighter satellites

Satellite Brightness Start Highest point End
(mag) Time Altitude Azimuth Time Altitude Azimuth Time Altitude Azimuth
Cosmos 2219 4.3 14:32:23 10° NNW 14:37:49 52° WSW 14:43:13 10° S
Cosmos 1980 Rocket 2.2 14:32:41 10° SSW 14:38:16 69° ESE 14:43:56 10° NNE
ARGOS 3.9 14:33:51 10° SE 14:38:27 30° ENE 14:43:07 10° N
Cosmos 2263 Rocket 2.9 14:34:30 10° N 14:39:29 32° NE 14:44:27 10° ESE
H-2A R/B 4.0 14:36:39 10° ESE 14:39:38 18° ENE 14:42:33 10° NNE
Timation 2 Rocket 4.5 14:33:36 10° NNW 14:40:29 78° WSW 14:47:08 10° SSE
Cosmos 2297 Rocket 4.2 14:38:17 10° NW 14:43:20 34° WSW 14:48:22 10° SSW
Cosmos 1953 2.6 14:40:28 10° SSE 14:44:21 47° E 14:48:15 10° NNE
H-2A R/B 2.3 14:39:35 10° SSE 14:44:47 54° ENE 14:50:06 10° N
CZ-2C R/B 4.3 14:39:56 10° S 14:45:36 53° W 14:51:15 10° NNW
Genesis I 4.0 14:47:51 10° NW 14:51:53 57° WSW 14:55:51 10° SSE
Okean-O 4.5 14:50:19 10° E 14:52:02 12° ENE 14:53:45 10° NE
Cosmos 1727 Rocket 4.0 14:45:58 10° N 14:52:12 89° E 14:58:23 10° S
CZ-4C R/B 3.7 14:49:38 10° NE 14:52:39 29° E 14:55:33 10° SSE
CZ-2D R/B 3.2 14:50:22 10° SSE 14:54:12 79° ENE 14:58:04 10° N
CZ-4 R/B 2.7 14:52:01 10° ESE 14:54:54 19° ENE 14:57:50 10° NNE
Cosmos 1697 Rocket 3.8 14:49:50 10° SW 14:55:15 46° WNW 15:00:42 10° NNE
Okean 1 Rocket 4.0 14:52:27 10° SSW 14:56:40 53° W 15:00:56 10° N
Iridium 4 Rocket 3.9 14:55:55 10° NNE 15:00:03 33° E 15:04:28 10° SSE
CZ-2C R/B 2.9 14:54:51 10° NNE 15:00:20 52° E 15:05:41 10° S
USA 215 4.4 14:58:52 10° NE 15:04:41 36° NNW 15:10:31 10° W
COSMO-SKYMED 1 2.5 15:03:17 10° NNE 15:07:39 73° ESE 15:11:58 10° S
Cosmos 389 Rocket 3.8 15:05:21 10° SSW 15:08:34 42° WNW 15:11:51 10° N
Cosmos 2227 Rocket 4.5 15:05:39 10° NW 15:10:25 29° WSW 15:15:10 10° SSW
Cosmos 1844 Rocket 4.3 15:10:07 10° NNE 15:13:16 15° NE 15:14:40 14° ENE
Cosmos 1908 3.7 15:09:52 10° SSW 15:13:43 64° W 15:17:34 10° N
deb Chang Zheng 4 3.9 15:09:47 10° S 15:13:57 67° WSW 15:18:09 10° NNW
Landsat 5 3.5 15:10:02 10° NNE 15:14:26 80° ESE 15:18:56 10° S
Cosmos 1269 Rocket 4.1 15:09:32 10° N 15:14:44 54° ENE 15:19:54 10° SE
Feng Yun 1-1 Rocket 4.4 15:09:50 10° SE 15:15:08 50° ENE 15:20:36 10° N
Cosmos 2278 3.8 15:10:01 10° SSW 15:15:41 80° WNW 15:21:25 10° NNE
Cosmos 1892 Rocket 3.5 15:13:12 10° N 15:17:41 89° E 15:22:06 10° S
IRAS Rocket 4.3 15:16:10 10° NNE 15:21:36 53° ESE 15:26:58 10° S
Cosmos 1605 Rocket 4.4 15:16:57 10° SSE 15:22:39 39° E 15:28:27 10° NNE
X-37B 1.2 15:20:32 10° WNW 15:23:37 46° N 15:24:59 27° ENE
NOSS 3-1 (A) 4.1 15:21:41 10° SSE 15:25:48 24° ESE 15:27:21 22° E
Cosmos 489 Rocket 4.4 15:20:31 10° NNW 15:26:44 74° ENE 15:32:56 10° SSE
Cosmos 1535 Rocket 4.5 15:22:18 10° S 15:28:24 61° E 15:34:38 10° NNE
ATLAS 3B R/B 4.3 15:24:32 10° W 15:30:15 30° NW 15:36:12 10° NNE
SL-16 R/B 2.4 15:25:11 10° S 15:30:36 49° ESE 15:36:04 10° NE
Cosmos 371 Rocket 3.2 15:27:43 10° S 15:32:30 63° ESE 15:37:20 10° NNE
SJ-11-01 4.3 15:29:44 10° SSE 15:34:25 83° WSW 15:39:09 10° NNW
Spot 2 3.8 15:31:28 10° SSE 15:35:32 74° ENE 15:39:46 10° N
USA 267 4.4 15:32:15 10° SSE 15:38:24 43° SW 15:44:35 10° WNW
NOSS 8 (F) 4.1 15:35:54 10° SSW 15:39:35 84° ESE 15:40:43 36° NE
Lacrosse 4 Rocket 2.7 15:38:24 10° N 15:41:41 24° NE 15:41:41 24° NE
Cosmos 1626 Rocket 3.5 15:39:36 10° N 15:43:52 55° E 15:47:41 12° SSE
Meteor 1-4 Rocket 4.1 15:41:50 10° SSE 15:43:10 20° SSE 15:43:10 20° SSE
Cosmos 2322 Rocket 2.3 15:40:27 10° S 15:45:48 49° ESE 15:50:23 14° NE
NOSS 2-3 (D) 3.5 15:42:32 10° SSW 15:46:27 56° ESE 15:47:53 36° ENE
ATLAS 5 CENTAUR R/B 3.0 15:43:00 10° WSW 15:46:30 32° NW 15:50:24 10° NNE
Meteor 2-10 Rocket 3.8 15:43:30 10° SSE 15:48:56 51° E 15:54:13 10° NNE
DMSP B5D1-3 4.4 15:44:13 10° NNE 15:49:20 64° E 15:54:26 10° S
Meteor 1-11 4.1 15:43:52 10° N 15:49:30 78° E 15:55:08 10° SSE
NOSS 3-1 (C) 3.0 15:47:02 10° SSW 15:52:09 75° ESE 15:56:39 18° NE
CZ-2C R/B 2.4 15:49:40 10° WSW 15:52:32 24° S 15:52:49 24° S
MOS 1-B Rocket 4.5 15:46:01 10° N 15:52:42 66° WNW 15:58:29 10° SSW
Cosmos 1300 3.0 15:49:37 10° SSW 15:53:24 68° W 15:57:12 10° N
Gbstr 26 Del rocket 4.5 15:48:44 10° WNW 15:56:04 82° SW 16:01:24 24° SE
SL-8 R/B 4.1 15:51:45 10° W 15:56:28 57° NNW 15:58:21 34° NE
OE (NEXTSAT) 4.4 15:53:34 10° SW 15:56:45 62° S 15:56:45 62° S
Cosmos 2360 Rocket 2.7 15:53:20 10° S 15:57:54 36° ESE 15:57:54 36° ESE
NOSS 2-3 (C) 3.3 15:55:08 10° SSW 15:59:07 81° ESE 16:00:27 43° NE
Cosmos 839 Rocket 4.3 15:51:44 10° NNW 15:59:15 58° NE 16:01:58 35° ESE
Cosmos 1934 Rocket 4.3 15:54:15 10° SSW 16:00:19 67° W 16:06:23 10° N
YAOGAN 1 2.7 15:57:44 10° S 16:02:02 75° WSW 16:06:23 10° NNW
Tiangong 1.7 15:59:47 10° WSW 16:02:21 52° SW 16:02:21 52° SW
HJ-1C 3.6 16:06:05 62° NW 16:06:05 62° NW 16:08:57 10° NNW
BREEZE-M DEB (TANK) 3.8 16:05:20 10° WNW 16:09:34 36° N 16:09:34 36° N
H-2A R/B 1.9 16:06:40 10° NNE 16:10:47 81° WNW 16:14:57 10° SSW
SL-08 RB Rocket 4.5 16:06:31 10° S 16:10:55 52° W 16:15:25 10° NNW
Okean O Rocket 3.9 16:08:43 10° SSW 16:12:16 25° W 16:15:51 10° NW
Cosmos 44 4.1 16:09:32 10° S 16:13:31 40° SSE 16:13:31 40° SSE
H-2A R/B 3.7 16:10:38 10° S 16:14:47 42° W 16:18:50 10° NNW
In-Cosmos 22 Rocket 3.9 16:12:53 10° N 16:18:13 71° E 16:19:01 60° SE
DMSP B5D2-2 4.2 16:14:26 10° N 16:19:42 72° WNW 16:24:53 10° SSW
Cosmos 2263 Rocket 3.5 16:18:21 10° NW 16:23:26 37° WSW 16:28:28 10° S
CSL-04 Debris 4.0 16:23:54 51° SSE 16:25:21 85° ENE 16:30:48 10° NNW
Okean-O 2.7 16:27:40 71° SW 16:27:53 73° WSW 16:32:20 10° NNW
MetOp-A 4.1 16:26:32 41° S 16:28:28 85° WSW 16:33:52 10° NNW
CZ-4 R/B 3.0 16:26:02 10° SSW 16:29:38 33° W 16:33:20 10° NNW
Cosmos 304 Rocket 4.3 16:30:36 10° SSW 16:35:18 57° WNW 16:37:17 32° N
Cosmos 614 Rocket 4.2 16:32:34 10° NNW 16:36:39 58° N 16:36:39 58° N
Cosmos 2237 4.2 16:32:38 10° SSW 16:38:21 80° WNW 16:40:03 47° NNE
CSL-04 Rocket 3.7 16:40:37 63° SSW 16:41:29 78° WSW 16:47:04 10° NNW
USA 229 DEB 3.6 16:47:14 10° SW 16:53:34 77° NW 16:54:35 64° N
USA 229 3.6 16:47:20 10° SW 16:53:40 78° NW 16:54:36 66° N
Cosmos 1844 Rocket 3.3 16:52:25 10° NNW 16:56:21 47° NNW 16:56:21 47° NNW
SL-16 R/B 4.1 17:10:15 10° WSW 17:14:58 26° NW 17:19:43 10° N
NOSS 3-1 (A) 4.2 17:10:59 10° WSW 17:14:52 42° W 17:14:52 42° W
Lacrosse 4 Rocket 4.1 17:16:42 10° NW 17:18:00 18° NW 17:18:00 18° NW
Cosmos 2344 4.5 17:14:50 10° NW 17:24:26 75° WSW 17:28:04 52° S
Cosmos 2322 Rocket 4.1 17:25:28 10° WSW 17:30:06 26° NW 17:32:18 21° NNW
Cosmos 2360 Rocket 4.2 17:37:23 10° WSW 17:39:47 22° WSW 17:39:47 22° WSW
